Torna al catalogo

STARLINK-37324

AttivoComunicazioniSSO
NORAD 68749·PAYLOAD·🇺🇸 United States

Lanciato Apr 15, 2026 da Vandenberg Space Force Base

Loading…

Prossimi Passaggi (prossime 24 ore)

TLE

AggiornatoSource: CelesTrak SupGP

Epoca: Sep 14, 2026, 23:14 UTC

1 68749C 26082X   26257.96854167  .00078932  00000+0  24508-2 0  2576
2 68749  97.2845 120.2429 0001911  92.8665 156.7290 15.33390691    10

Traccia STARLINK-37324 in tempo reale con AllMySat

Download on the App Store